Location: Oakhurst
(33.6448°N, 111.9543°W)
Time: 21:58:26
(UTC+00:00)

DUCHIFAT 1 - Pass Details

Date: 31 July 2021
Orbit: 585 x 601 km, 98.0° (Epoch: 15 September)

Event Time Altitude Azimuth Distance (km) Brightness Sun altitude
Rises 10:28:38 0° 348° (NNW) 2,842 ? -23.6°
Reaches altitude 10° 10:31:50 10° 321° (NW) 1,938 ? -23.1°
Enters shadow 10:32:39 12° 311° (NW) 1,809 ? -23.0°
